Tracking 28341 objects as of 6-Dec-2023
HD Live streaming from Space Station
objects crossing your sky now

SL-16 DEB

Track SL-16 DEB now!
10-day predictions


NORAD ID: 43354
Int'l Code: 1996-051P
Perigee: 788.6 km
Apogee: 921.3 km
Inclination: 71.2 °
Period: 101.9 minutes
Semi major axis: 7225 km
RCS: Unknown
Launch date: September 4, 1996
Source: Commonwealth of Independent States (former USSR) (CIS)
Launch site: TYURATAM MISSILE AND SPACE COMPLEX (TTMTR)

Note: This is SATELLITE DEBRIS
Your satellite tracking list
Your tracking list is empty




NASA's NSSDC Master Catalog

Two Line Element Set (TLE):
1 43354U 96051P   23334.96538615  .00000745  00000-0  40412-3 0  9998
2 43354  71.1931  78.0524 0091795  99.8183 261.3320 14.13382290517078
Source of the keplerian elements: AFSPC